Powrót do katalogu

FENGYUN 1C DEB

LostPO
NORAD 38804·DEBRIS·🇨🇳 China

Wystrzelony May 10, 1999 z Taiyuan Satellite Launch Center

Loading…

Następne Przeloty (najbliższe 24 godziny)

TLE

NieaktualneSource: Space-Track

Epoka: Jul 26, 2022, 06:08 UTC

1 38804U 99025EUU 22207.25558910  .00002265  00000-0  18771-2 0  9997
2 38804  97.5307   3.9120 0393995 142.2254 220.7257 13.58893283656461

Śledź FENGYUN 1C DEB w czasie rzeczywistym z AllMySat

Download on the App Store